Location: Prague
(50.0833°N, 14.4667°E)
Time: 19:44:14
(UTC+02:00)

ISS - Pass Details

Date: 31 May 2024
Orbit: 410 x 421 km, 51.6° (Epoch: 12 June)

Event Time Altitude Azimuth Distance (km) Brightness Sun altitude
Rises 17:28:38 0° 281° (W) 2,378 1.2 31.2°
Reaches altitude 10° 17:30:45 10° 283° (WNW) 1,512 0.5 30.9°
Maximum altitude 17:34:09 71° 8° (N) 451 -3.2 30.4°
Drops below altitude 10° 17:37:31 10° 94° (E) 1,506 -1.4 29.8°
Sets 17:39:38 0° 96° (E) 2,367 -0.5 29.5°
